| time (UTC) | temp C | wind direction | speed KPH | gust KPH | rain 1hr cm | rain 24hr cm | rain mn cm | humidity % | barometer mb |
| 20260505124555 | 11 | 0 | 0.0 | 0.0 | 0.00 | 0.00 | 0.00 | 89 | 1015.5 |
| 20260505123056 | 10 | 0 | 0.0 | 0.0 | 0.00 | 0.00 | 0.00 | 89 | 1015.4 |
| 20260505121558 | 10 | 0 | 0.0 | 0.0 | 0.00 | 0.00 | 0.00 | 89 | 1015.4 |
| 20260505120113 | 10 | 0 | 0.0 | 0.0 | 0.00 | 0.00 | 0.00 | 90 | 1015.3 |
| 20260505114555 | 10 | 0 | 0.0 | 0.0 | 0.00 | 0.00 | 0.00 | 90 | 1015.3 |
| 20260505113103 | 10 | 0 | 0.0 | 0.0 | 0.00 | 0.00 | 0.00 | 90 | 1015.1 |
| 20260505111547 | 10 | 0 | 0.0 | 0.0 | 0.00 | 0.00 | 0.00 | 90 | 1015.2 |
| 20260505101553 | 10 | 0 | 0.0 | 0.0 | 0.00 | 0.00 | 0.00 | 89 | 1014.5 |
| 20260505100057 | 10 | 0 | 0.0 | 0.0 | 0.00 | 0.00 | 0.00 | 89 | 1014.6 |
| 20260505094623 | 10 | 0 | 0.0 | 0.0 | 0.00 | 0.00 | 0.00 | 88 | 1014.7 |
| 20260505093101 | 10 | 0 | 0.0 | 0.0 | 0.00 | 0.00 | 0.00 | 88 | 1014.5 |
| 20260505091556 | 10 | 0 | 0.0 | 3.2 | 0.00 | 0.00 | 0.00 | 87 | 1014.4 |
| 20260505084556 | 11 | 0 | 0.0 | 3.2 | 0.00 | 0.00 | 0.00 | 86 | 1014.1 |
| 20260505083100 | 11 | 0 | 0.0 | 1.6 | 0.00 | 0.00 | 0.00 | 86 | 1014.2 |
| 20260505081558 | 11 | 0 | 0.0 | 3.2 | 0.00 | 0.00 | 0.00 | 85 | 1014.2 |
| 20260505080053 | 11 | 0 | 0.0 | 1.6 | 0.00 | 0.00 | 0.00 | 85 | 1014.0 |
| 20260505074553 | 12 | 0 | 0.0 | 3.2 | 0.00 | 0.00 | 0.00 | 84 | 1013.9 |
| 20260505073053 | 12 | 212 | 0.0 | 3.2 | 0.00 | 0.00 | 0.00 | 84 | 1013.7 |
| 20260505071552 | 12 | 0 | 0.0 | 4.8 | 0.00 | 0.00 | 0.00 | 84 | 1013.6 |
| 20260505070058 | 12 | 0 | 0.0 | 3.2 | 0.00 | 0.00 | 0.00 | 83 | 1013.5 |
| 20260505064556 | 12 | 0 | 0.0 | 1.6 | 0.00 | 0.00 | 0.00 | 82 | 1013.3 |
| 20260505063052 | 13 | 172 | 0.0 | 1.6 | 0.00 | 0.00 | 0.00 | 82 | 1013.0 |
| 20260505061559 | 13 | 0 | 0.0 | 1.6 | 0.00 | 0.00 | 0.00 | 81 | 1012.9 |
| 20260505060059 | 13 | 0 | 0.0 | 1.6 | 0.00 | 0.00 | 0.00 | 80 | 1013.0 |
| 20260505054558 | 14 | 0 | 0.0 | 3.2 | 0.00 | 0.00 | 0.00 | 79 | 1012.9 |
| 20260505053053 | 15 | 0 | 0.0 | 3.2 | 0.00 | 0.00 | 0.00 | 78 | 1012.7 |
| 20260505051556 | 15 | 0 | 0.0 | 3.2 | 0.00 | 0.00 | 0.00 | 76 | 1012.7 |
| 20260505041558 | 17 | 0 | 0.0 | 6.4 | 0.00 | 0.00 | 0.00 | 71 | 1011.9 |
| 20260505040105 | 17 | 0 | 0.0 | 4.8 | 0.00 | 0.00 | 0.00 | 70 | 1011.8 |
| 20260505034553 | 18 | 0 | 0.0 | 4.8 | 0.00 | 0.00 | 0.00 | 69 | 1011.5 |
| 20260505033051 | 18 | 263 | 0.0 | 6.4 | 0.00 | 0.00 | 0.00 | 68 | 1011.2 |
| 20260505031558 | 19 | 203 | 0.0 | 4.8 | 0.00 | 0.00 | 0.00 | 67 | 1011.1 |
| 20260505030058 | 19 | 219 | 0.0 | 4.8 | 0.00 | 0.00 | 0.00 | 67 | 1010.9 |
| 20260505024553 | 20 | 0 | 0.0 | 6.4 | 0.00 | 0.00 | 0.00 | 67 | 1010.9 |
| 20260505023052 | 20 | 271 | 0.0 | 4.8 | 0.00 | 0.00 | 0.00 | 66 | 1010.9 |
| 20260505021555 | 21 | 162 | 0.0 | 4.8 | 0.00 | 0.00 | 0.00 | 67 | 1010.8 |
| 20260505020052 | 21 | 311 | 0.0 | 4.8 | 0.00 | 0.00 | 0.00 | 65 | 1010.7 |
| 20260505014604 | 22 | 307 | 0.0 | 6.4 | 0.00 | 0.00 | 0.00 | 63 | 1010.7 |
| 20260505013051 | 22 | 142 | 0.0 | 6.4 | 0.00 | 0.00 | 0.00 | 63 | 1010.7 |
| 20260505011553 | 22 | 0 | 1.6 | 9.7 | 0.00 | 0.00 | 0.00 | 61 | 1010.9 |
| 20260505010052 | 23 | 0 | 1.6 | 11.3 | 0.00 | 0.00 | 0.00 | 61 | 1011.1 |
| 20260505004620 | 23 | 235 | 1.6 | 11.3 | 0.00 | 0.00 | 0.00 | 60 | 1011.1 |
| 20260505003053 | 23 | 254 | 1.6 | 8.0 | 0.00 | 0.00 | 0.00 | 59 | 1011.2 |
| 20260505001554 | 23 | 309 | 1.6 | 6.4 | 0.00 | 0.00 | 0.00 | 58 | 1011.3 |
| 20260505000057 | 23 | 273 | 1.6 | 9.7 | 0.00 | 0.00 | 0.00 | 59 | 1011.3 |
| 20260504234553 | 23 | 280 | 0.0 | 9.7 | 0.00 | 0.00 | 0.00 | 61 | 1011.4 |
| 20260504233052 | 23 | 326 | 0.0 | 8.0 | 0.00 | 0.00 | 0.00 | 61 | 1011.6 |
| 20260504231547 | 23 | 313 | 1.6 | 9.7 | 0.00 | 0.00 | 0.00 | 61 | 1011.6 |
| 20260504230054 | 22 | 209 | 0.0 | 4.8 | 0.00 | 0.00 | 0.00 | 61 | 1011.6 |
| 20260504224551 | 22 | 0 | 0.0 | 4.8 | 0.00 | 0.00 | 0.00 | 61 | 1011.7 |
| 20260504223051 | 22 | 78 | 0.0 | 3.2 | 0.00 | 0.00 | 0.00 | 62 | 1011.9 |
| 20260504221557 | 22 | 194 | 0.0 | 3.2 | 0.00 | 0.00 | 0.00 | 64 | 1012.0 |
| 20260504220054 | 21 | 292 | 1.6 | 9.7 | 0.00 | 0.00 | 0.00 | 61 | 1012.2 |
| 20260504214602 | 21 | 140 | 0.0 | 6.4 | 0.00 | 0.00 | 0.00 | 64 | 1012.4 |
| 20260504213055 | 20 | 0 | 0.0 | 6.4 | 0.00 | 0.00 | 0.00 | 64 | 1012.5 |
| 20260504211551 | 20 | 0 | 0.0 | 4.8 | 0.00 | 0.00 | 0.00 | 67 | 1012.8 |
| 20260504204610 | 19 | 285 | 0.0 | 4.8 | 0.00 | 0.00 | 0.00 | 69 | 1013.3 |
| 20260504203122 | 18 | 122 | 1.6 | 8.0 | 0.00 | 0.00 | 0.00 | 69 | 1013.4 |
| 20260504201554 | 17 | 0 | 0.0 | 11.3 | 0.00 | 0.00 | 0.00 | 73 | 1013.5 |
| 20260504200051 | 17 | 127 | 1.6 | 6.4 | 0.00 | 0.00 | 0.00 | 73 | 1013.7 |
| 20260504194553 | 16 | 258 | 1.6 | 9.7 | 0.00 | 0.00 | 0.00 | 75 | 1013.7 |
| 20260504193056 | 15 | 0 | 0.0 | 8.0 | 0.00 | 0.00 | 0.00 | 79 | 1013.8 |
| 20260504191558 | 15 | 321 | 0.0 | 4.8 | 0.00 | 0.00 | 0.00 | 80 | 1013.9 |
| 20260504190055 | 14 | 0 | 1.6 | 6.4 | 0.00 | 0.00 | 0.00 | 80 | 1014.0 |
| 20260504184559 | 14 | 272 | 1.6 | 9.7 | 0.00 | 0.00 | 0.00 | 81 | 1014.1 |
| 20260504183104 | 13 | 0 | 0.0 | 4.8 | 0.00 | 0.00 | 0.00 | 82 | 1014.2 |
| 20260504181554 | 13 | 255 | 0.0 | 6.4 | 0.00 | 0.00 | 0.00 | 82 | 1014.1 |
| 20260504180113 | 13 | 271 | 1.6 | 6.4 | 0.00 | 0.00 | 0.00 | 82 | 1014.2 |
| 20260504174553 | 13 | 0 | 3.2 | 6.4 | 0.00 | 0.00 | 0.00 | 82 | 1014.0 |
| 20260504173107 | 13 | 226 | 1.6 | 6.4 | 0.00 | 0.00 | 0.00 | 83 | 1014.1 |
| 20260504171559 | 13 | 0 | 0.0 | 8.0 | 0.00 | 0.00 | 0.00 | 83 | 1014.0 |
| 20260504160106 | 12 | 0 | 0.0 | 4.8 | 0.00 | 0.00 | 0.00 | 85 | 1013.7 |